Location: Spangle
(47.4302°N, 117.3779°W)
Time: 14:59:01
(UTC+00:00)

Envisat - Pass Details

Date: 23 April 2026
Orbit: 761 x 762 km, 98.4° (Epoch: 15 May)

Event Time Altitude Azimuth Distance (km) Brightness Sun altitude
Rises 09:34:41 0° 24° (NNE) 3,235 7.6 -25.4°
Reaches altitude 10° 09:37:21 10° 37° (NE) 2,304 6.5 -25.2°
Maximum altitude 09:41:36 26° 94° (E) 1,458 4.7 -24.8°
Enters shadow 09:43:54 19° 133° (SE) 1,749 4.7 -24.6°
